Date String (YYYY-MM-DD hh:mm:ss) UTC,Instrument flags,Ambient pressure (hPa),Sample flow (lpm),Bypass flow (lpm),Sample temperature (°C),Ambient temperature (°C),ASC tube jacket temperature (°C),LED temperature (°C),Box temperature (°C),Sample RH (%),Span deviation,Mass concentration (μg/m³),Mass concentration (μg/m³),Mass concentration (μg/m³)
DateTimeUTC,F1_M11,P_M11,Q1_M11,Q2_M11,T1_M11,T2_M11,T3_M11,T4_M11,T5_M11,U1_M11,ZSPAN_M11,X0_M11,X2_M11,X1_M11
2022-09-29 11:00:00,,0830.7,4.99,0.00,30.7,29.3,00.0,39.5,32.5,13.4,0000.0,0011.75,0004.50,0003.77
2022-09-29 11:01:00,,0830.7,5.01,0.00,30.7,29.3,00.0,39.5,32.5,13.4,0000.0,0011.36,0004.48,0003.77
2022-09-29 11:02:00,,0830.6,5.00,0.00,30.7,29.3,00.0,39.5,32.5,13.5,0000.0,0011.33,0004.48,0003.78
2022-09-29 11:03:00,,0830.6,4.98,0.00,30.8,29.3,00.0,39.5,32.5,13.4,0000.0,0011.54,0004.47,0003.78
2022-09-29 11:04:00,,0830.6,5.00,0.00,30.8,29.4,00.0,39.5,32.5,13.4,0000.0,0011.97,0004.50,0003.78
2022-09-29 11:05:00,,0830.6,5.00,0.00,30.8,29.3,00.0,39.5,32.5,13.4,0000.0,0011.19,0004.55,0003.78
2022-09-29 11:06:00,,0830.6,4.98,0.00,30.8,29.3,00.0,39.5,32.5,13.4,0000.0,0011.20,0004.58,0003.78
2022-09-29 11:07:00,,0830.6,5.00,0.00,30.8,29.2,00.0,39.5,32.5,13.5,0000.0,0011.42,0004.54,0003.77
2022-09-29 11:08:00,,0830.6,5.00,0.00,30.8,29.2,00.0,39.5,32.5,13.5,0000.0,0010.89,0004.48,0003.77
2022-09-29 11:09:00,,0830.6,4.99,0.00,30.8,29.3,00.0,39.5,32.5,13.6,0000.0,0010.85,0004.46,0003.77
2022-09-29 11:10:00,,0830.6,5.00,0.00,30.8,29.3,00.0,39.5,32.5,13.6,0000.0,0011.17,0004.46,0003.76
2022-09-29 11:11:00,,0830.6,5.00,0.00,30.8,29.2,00.0,39.5,32.5,13.7,0000.0,0011.64,0004.45,0003.77
2022-09-29 11:12:00,,0830.6,5.00,0.00,30.7,29.1,00.0,39.5,32.5,13.8,0000.0,0011.70,0004.46,0003.78
2022-09-29 11:13:00,,0830.6,5.00,0.00,30.7,29.1,00.0,39.5,32.5,13.8,0000.0,0012.32,0004.44,0003.79
2022-09-29 11:14:00,,0830.6,5.01,0.00,30.7,29.1,00.0,39.5,32.5,13.8,0000.0,0012.24,0004.45,0003.80
2022-09-29 11:15:00,,0830.6,5.01,0.00,30.7,29.1,00.0,39.5,32.5,13.8,0000.0,0012.05,0004.47,0003.83
2022-09-29 11:16:00,,0830.6,4.99,0.00,30.7,29.1,00.0,39.5,32.5,13.8,0000.0,0012.11,0004.46,0003.84
2022-09-29 11:17:00,,0830.6,5.00,0.00,30.7,29.1,00.0,39.5,32.4,14.0,0000.0,0011.77,0004.41,0003.84
2022-09-29 11:18:00,,0830.6,5.01,0.00,30.7,29.1,00.0,39.5,32.4,13.9,0000.0,0011.42,0004.40,0003.84
2022-09-29 11:19:00,,0830.6,5.00,0.00,30.7,29.1,00.0,39.5,32.4,13.8,0000.0,0011.30,0004.39,0003.84
2022-09-29 11:20:00,,0830.6,4.99,0.00,30.7,29.1,00.0,39.5,32.4,13.8,0000.0,0011.18,0004.38,0003.84
2022-09-29 11:21:00,,0830.6,5.01,0.00,30.7,29.1,00.0,39.5,32.4,13.8,0000.0,0010.71,0004.38,0003.83
2022-09-29 11:22:00,,0830.6,5.00,0.00,30.7,29.1,00.0,39.5,32.4,13.8,0000.0,0010.15,0004.37,0003.82
2022-09-29 11:23:00,,0830.6,4.99,0.00,30.7,29.2,00.0,39.5,32.4,13.8,0000.0,0010.16,0004.36,0003.79
2022-09-29 11:24:00,,0830.7,5.01,0.00,30.7,29.2,00.0,39.5,32.5,13.7,0000.0,0009.45,0004.33,0003.76
2022-09-29 11:25:00,,0830.7,4.99,0.00,30.7,29.2,00.0,39.5,32.5,13.8,0000.0,0009.07,0004.27,0003.72
2022-09-29 11:26:00,,0830.7,5.01,0.00,30.7,29.2,00.0,39.5,32.5,13.8,0000.0,0008.96,0004.23,0003.69
2022-09-29 11:27:00,,0830.7,4.99,0.00,30.7,29.2,00.0,39.5,32.5,13.8,0000.0,0008.89,0004.20,0003.66
2022-09-29 11:28:00,,0830.8,5.01,0.00,30.7,29.2,00.0,39.5,32.5,13.8,0000.0,0009.25,0004.21,0003.64
2022-09-29 11:29:00,,0830.8,5.00,0.00,30.7,29.3,00.0,39.5,32.5,13.7,0000.0,0009.38,0004.26,0003.63
2022-09-29 11:30:00,,0830.7,5.00,0.00,30.7,29.3,00.0,39.5,32.5,13.7,0000.0,0009.13,0004.27,0003.62
2022-09-29 11:31:00,,0830.7,5.00,0.00,30.7,29.3,00.0,39.5,32.5,13.7,0000.0,0009.11,0004.25,0003.60
2022-09-29 11:32:00,,0830.8,5.01,0.00,30.8,29.3,00.0,39.5,32.5,13.6,0000.0,0009.25,0004.25,0003.59
2022-09-29 11:33:00,,0830.8,4.98,0.00,30.8,29.3,00.0,39.5,32.5,13.6,0000.0,0009.05,0004.25,0003.59
2022-09-29 11:34:00,,0830.8,5.00,0.00,30.8,29.4,00.0,39.5,32.5,13.6,0000.0,0008.92,0004.23,0003.59
2022-09-29 11:35:00,,0830.8,5.01,0.00,30.8,29.4,00.0,39.5,32.6,13.6,0000.0,0009.09,0004.20,0003.59
2022-09-29 11:36:00,,0830.8,4.99,0.00,30.8,29.4,00.0,39.5,32.6,13.6,0000.0,0009.89,0004.23,0003.61
2022-09-29 11:37:00,,0830.8,5.01,0.00,30.8,29.4,00.0,39.5,32.6,13.6,0000.0,0010.03,0004.25,0003.62
2022-09-29 11:38:00,,0830.7,4.99,0.00,30.8,29.5,00.0,39.5,32.6,13.5,0000.0,0009.73,0004.23,0003.62
2022-09-29 11:39:00,,0830.8,5.01,0.00,30.8,29.5,00.0,39.6,32.6,13.6,0000.0,0009.39,0004.20,0003.62
2022-09-29 11:40:00,,0830.7,4.99,0.00,30.8,28.9,00.0,39.6,32.6,14.1,0000.0,0009.71,0004.17,0003.61
2022-09-29 11:41:00,,0830.8,5.00,0.00,30.8,27.2,00.0,39.5,32.4,14.2,0000.0,0009.94,0004.17,0003.62
2022-09-29 11:42:00,,0830.7,4.99,0.00,30.7,26.2,00.0,39.4,32.3,14.6,0000.0,0010.07,0004.23,0003.63
2022-09-29 11:43:00,,0830.7,5.00,0.00,30.6,26.3,00.0,39.3,32.1,14.2,0000.0,0010.02,0004.21,0003.63
2022-09-29 11:44:00,,0830.6,5.00,0.00,30.5,26.7,00.0,39.3,32.0,14.3,0000.0,0010.10,0004.19,0003.62
2022-09-29 11:45:00,,0830.6,5.00,0.00,30.4,27.0,00.0,39.3,32.0,14.3,0000.0,0010.33,0004.18,0003.62
2022-09-29 11:46:00,,0830.6,4.99,0.00,30.3,27.4,00.0,39.2,31.9,14.2,0000.0,0010.96,0004.22,0003.62
2022-09-29 11:47:00,,0830.6,5.00,0.00,30.3,27.7,00.0,39.2,31.9,14.2,0000.0,0011.09,0004.25,0003.61
2022-09-29 11:48:00,,0830.7,4.99,0.00,30.3,28.0,00.0,39.1,31.9,14.2,0000.0,0011.20,0004.26,0003.60
2022-09-29 11:49:00,,0830.6,5.00,0.00,30.2,28.2,00.0,39.1,31.9,14.2,0000.0,0011.22,0004.27,0003.59
2022-09-29 11:50:00,,0830.6,5.01,0.00,30.2,28.3,00.0,39.1,32.0,14.2,0000.0,0011.22,0004.32,0003.59
2022-09-29 11:51:00,,0830.6,4.98,0.00,30.2,28.4,00.0,39.1,32.0,14.2,0000.0,0010.66,0004.30,0003.59
2022-09-29 11:52:00,,0830.6,5.01,0.00,30.2,28.6,00.0,39.0,32.0,14.2,0000.0,0010.72,0004.29,0003.59
2022-09-29 11:53:00,,0830.6,5.00,0.00,30.2,28.7,00.0,39.0,32.0,14.2,0000.0,0010.91,0004.26,0003.60
2022-09-29 11:54:00,,0830.6,5.00,0.00,30.2,28.7,00.0,39.0,32.0,14.3,0000.0,0011.77,0004.27,0003.62
2022-09-29 11:55:00,,0830.6,5.00,0.00,30.2,28.7,00.0,39.0,32.0,14.2,0000.0,0011.98,0004.28,0003.63
2022-09-29 11:56:00,,0830.7,5.00,0.00,30.3,28.8,00.0,39.0,32.0,14.2,0000.0,0011.68,0004.27,0003.65
2022-09-29 11:57:00,,0830.7,5.00,0.00,30.3,28.9,00.0,39.0,32.1,14.2,0000.0,0010.73,0004.27,0003.66
2022-09-29 11:58:00,,0830.8,5.01,0.00,30.3,28.9,00.0,39.0,32.1,14.2,0000.0,0009.84,0004.23,0003.67
2022-09-29 11:59:00,,0830.8,4.99,0.00,30.3,28.9,00.0,39.0,32.1,14.4,0000.0,0009.43,0004.20,0003.68
